Torna al catalogo

STARLINK-35731

AttivoComunicazioniVLEO
NORAD 66228·PAYLOAD·🇺🇸 United States

Lanciato Oct 28, 2025 da Vandenberg Space Force Base

Loading…

Prossimi Passaggi (prossime 24 ore)

TLE

AggiornatoSource: CelesTrak SupGP

Epoca: Sep 14, 2026, 23:04 UTC

1 66228C 25244Y   26257.96159722  .00036843  00000+0  10889-2 0  2572
2 66228  53.1588  67.2780 0001223  80.8974  39.1718 15.34362893    14

Traccia STARLINK-35731 in tempo reale con AllMySat

Download on the App Store